Retour au catalogue

COSMOS 2251 DEB

ActifLEO
NORAD 35661·DEBRIS·🇷🇺 Russia

Lancé Jun 16, 1993 depuis Plesetsk Cosmodrome

Loading…

Prochains Passages (prochaines 24 heures)

TLE

FraisSource: Space-Track

Époque: Sep 12, 2026, 16:52 UTC

1 35661U 93036APC 26255.70340677  .00004130  00000-0  40563-3 0  9995
2 35661  74.0093 252.0141 0085980 284.7276  74.4388 14.89768026919449

Suivez COSMOS 2251 DEB en temps réel avec AllMySat

Download on the App Store